JBU1135 TIST-TJSJ

Flight info

Callsign JBU1135
Flight time 0h 25m
Altitude 8000
Route STT RTE2 SJU
Aircraft A21N/M-SDE3FGHIRWY/LB1

Departure

Time 2026-04-26 01:40
Airport Cyril E. King Airport (TIST)

Arrival

Time 2026-04-26 02:06
Airport Luis Munoz Marin International Airport (TJSJ)
Time Latitude Longitude Altitude Speed Heading
2026-04-26 01:20 18.33599 -64.97169 31 ft 0 kts 190°
2026-04-26 01:33 18.33603 -64.97168 31 ft 2 kts 191°
2026-04-26 01:33 18.33618 -64.97165 31 ft 2 kts 190°
2026-04-26 01:33 18.33632 -64.97163 31 ft 2 kts 191°
2026-04-26 01:33 18.33648 -64.97160 30 ft 2 kts 198°
2026-04-26 01:34 18.33659 -64.97150 31 ft 2 kts 242°
2026-04-26 01:34 18.33663 -64.97140 31 ft 0 kts 264°
2026-04-26 01:34 18.33663 -64.97132 31 ft 0 kts 267°
2026-04-26 01:36 18.33663 -64.97133 31 ft 0 kts 267°
2026-04-26 01:37 18.33659 -64.97209 30 ft 8 kts 267°
2026-04-26 01:37 18.33655 -64.97285 30 ft 11 kts 267°
2026-04-26 01:37 18.33648 -64.97377 29 ft 12 kts 263°
2026-04-26 01:37 18.33636 -64.97475 29 ft 14 kts 262°
2026-04-26 01:38 18.33621 -64.97587 28 ft 16 kts 263°
2026-04-26 01:38 18.33610 -64.97712 28 ft 17 kts 267°
2026-04-26 01:38 18.33605 -64.97846 27 ft 18 kts 267°
2026-04-26 01:38 18.33599 -64.97982 27 ft 18 kts 267°
2026-04-26 01:39 18.33593 -64.98118 27 ft 18 kts 267°
2026-04-26 01:39 18.33588 -64.98248 27 ft 13 kts 268°
2026-04-26 01:39 18.33621 -64.98326 27 ft 12 kts 336°
2026-04-26 01:39 18.33690 -64.98292 27 ft 13 kts 75°
2026-04-26 01:40 18.33698 -64.98092 27 ft 64 kts 89°
2026-04-26 01:40 18.33732 -64.97309 30 ft 147 kts 87°
2026-04-26 01:40 18.33801 -64.96056 407 ft 181 kts 89°
2026-04-26 01:40 18.33777 -64.94782 1356 ft 178 kts 109°
2026-04-26 01:41 18.33029 -64.93845 2190 ft 170 kts 153°
2026-04-26 01:41 18.31909 -64.93568 2791 ft 171 kts 182°
2026-04-26 01:41 18.30758 -64.93970 3148 ft 187 kts 214°
2026-04-26 01:41 18.29896 -64.95073 3514 ft 205 kts 237°
2026-04-26 01:42 18.29118 -64.96383 3901 ft 222 kts 236°
2026-04-26 01:42 18.28229 -64.97816 4230 ft 244 kts 236°
2026-04-26 01:42 18.27247 -64.99373 4689 ft 262 kts 236°
2026-04-26 01:42 18.26264 -65.01016 5328 ft 272 kts 244°
2026-04-26 01:43 18.25856 -65.02949 6098 ft 276 kts 271°
2026-04-26 01:43 18.26102 -65.04923 6927 ft 277 kts 281°
2026-04-26 01:43 18.26492 -65.06904 7541 ft 279 kts 282°
2026-04-26 01:43 18.26874 -65.08889 7888 ft 279 kts 281°
2026-04-26 01:44 18.27233 -65.10915 7983 ft 278 kts 280°
2026-04-26 01:44 18.27561 -65.12907 7982 ft 278 kts 279°
2026-04-26 01:44 18.27874 -65.14902 7982 ft 277 kts 279°
2026-04-26 01:44 18.28183 -65.16918 7989 ft 278 kts 279°
2026-04-26 01:45 18.28484 -65.18906 7981 ft 278 kts 279°
2026-04-26 01:45 18.28789 -65.20921 7981 ft 278 kts 279°
2026-04-26 01:45 18.29094 -65.22940 7986 ft 278 kts 279°
2026-04-26 01:45 18.29468 -65.24937 7987 ft 279 kts 282°
2026-04-26 01:46 18.29876 -65.26911 7981 ft 278 kts 282°
2026-04-26 01:46 18.30290 -65.28899 7988 ft 278 kts 282°
2026-04-26 01:46 18.30703 -65.30887 7984 ft 278 kts 282°
2026-04-26 01:46 18.31119 -65.32890 7984 ft 278 kts 282°
2026-04-26 01:47 18.31527 -65.34860 7980 ft 279 kts 282°
2026-04-26 01:47 18.31941 -65.36858 7974 ft 279 kts 282°
2026-04-26 01:47 18.32352 -65.38851 7972 ft 278 kts 282°
2026-04-26 01:47 18.32758 -65.40824 7975 ft 278 kts 282°
2026-04-26 01:48 18.33171 -65.42829 7977 ft 279 kts 282°
2026-04-26 01:48 18.33583 -65.44830 7975 ft 279 kts 282°
2026-04-26 01:48 18.33990 -65.46810 7974 ft 279 kts 282°
2026-04-26 01:48 18.34402 -65.48813 7972 ft 278 kts 282°
2026-04-26 01:49 18.34809 -65.50795 7976 ft 277 kts 282°
2026-04-26 01:49 18.35218 -65.52789 7977 ft 277 kts 282°
2026-04-26 01:49 18.35622 -65.54760 7974 ft 279 kts 282°
2026-04-26 01:49 18.36031 -65.56753 7879 ft 274 kts 282°
2026-04-26 01:50 18.36429 -65.58693 7487 ft 274 kts 282°
2026-04-26 01:50 18.36832 -65.60664 7068 ft 274 kts 282°
2026-04-26 01:50 18.37233 -65.62621 6705 ft 272 kts 282°
2026-04-26 01:50 18.37627 -65.64549 6313 ft 272 kts 282°
2026-04-26 01:51 18.38024 -65.66487 6018 ft 269 kts 282°
2026-04-26 01:51 18.38421 -65.68428 5984 ft 272 kts 282°
2026-04-26 01:51 18.38820 -65.70383 5977 ft 272 kts 281°
2026-04-26 01:51 18.39216 -65.72321 5981 ft 273 kts 281°
2026-04-26 01:52 18.39609 -65.74268 5980 ft 272 kts 280°
2026-04-26 01:52 18.39819 -65.76235 5973 ft 265 kts 271°
2026-04-26 01:52 18.39749 -65.78117 5964 ft 247 kts 263°
2026-04-26 01:52 18.39474 -65.79845 5971 ft 239 kts 259°
2026-04-26 01:53 18.39146 -65.81564 5977 ft 239 kts 258°
2026-04-26 01:53 18.38814 -65.83280 5977 ft 239 kts 259°
2026-04-26 01:53 18.38486 -65.84998 5981 ft 240 kts 259°
2026-04-26 01:53 18.38160 -65.86715 5996 ft 239 kts 259°
2026-04-26 01:54 18.37841 -65.88420 5993 ft 240 kts 259°
2026-04-26 01:54 18.37521 -65.90141 5977 ft 239 kts 259°
2026-04-26 01:54 18.37200 -65.91864 5972 ft 239 kts 259°
2026-04-26 01:54 18.36880 -65.93578 5976 ft 239 kts 260°
2026-04-26 01:55 18.36864 -65.95307 5961 ft 238 kts 283°
2026-04-26 01:55 18.37533 -65.96916 5981 ft 240 kts 301°
2026-04-26 01:55 18.38294 -65.98461 5965 ft 239 kts 283°
2026-04-26 01:55 18.38520 -66.00195 5987 ft 239 kts 274°
2026-04-26 01:56 18.38601 -66.01926 5816 ft 235 kts 271°
2026-04-26 01:56 18.38656 -66.03634 5409 ft 238 kts 271°
2026-04-26 01:56 18.38711 -66.05385 5049 ft 238 kts 271°
2026-04-26 01:56 18.38767 -66.07122 4687 ft 238 kts 271°
2026-04-26 01:57 18.38820 -66.08861 4332 ft 238 kts 272°
2026-04-26 01:57 18.38838 -66.10591 4049 ft 234 kts 269°
2026-04-26 01:57 18.38749 -66.12299 4013 ft 233 kts 267°
2026-04-26 01:57 18.38634 -66.13984 4011 ft 233 kts 266°
2026-04-26 01:58 18.38513 -66.15688 3999 ft 234 kts 266°
2026-04-26 01:58 18.38394 -66.17406 4013 ft 234 kts 266°
2026-04-26 01:58 18.38283 -66.19052 4037 ft 217 kts 266°
2026-04-26 01:58 18.38178 -66.20622 4083 ft 216 kts 266°
2026-04-26 01:59 18.38077 -66.22190 3851 ft 212 kts 266°
2026-04-26 01:59 18.37985 -66.23731 3420 ft 214 kts 266°
2026-04-26 01:59 18.38038 -66.25293 3055 ft 212 kts 285°
2026-04-26 01:59 18.38848 -66.26550 3001 ft 213 kts 322°
2026-04-26 02:00 18.40222 -66.27090 2998 ft 212 kts 357°
2026-04-26 02:00 18.41618 -66.26709 2992 ft 209 kts 33°
2026-04-26 02:00 18.42523 -66.25547 2994 ft 207 kts 67°
2026-04-26 02:00 18.42947 -66.24087 3003 ft 207 kts 74°
2026-04-26 02:01 18.43237 -66.22605 2996 ft 208 kts 81°
2026-04-26 02:01 18.43363 -66.21099 2991 ft 208 kts 86°
2026-04-26 02:01 18.43406 -66.19566 2991 ft 208 kts 88°
2026-04-26 02:01 18.43411 -66.18045 2943 ft 203 kts 89°
2026-04-26 02:02 18.43405 -66.16605 2724 ft 190 kts 89°
2026-04-26 02:02 18.43398 -66.15284 2499 ft 172 kts 88°
2026-04-26 02:02 18.43392 -66.14088 2268 ft 155 kts 89°
2026-04-26 02:02 18.43386 -66.13017 2056 ft 143 kts 88°
2026-04-26 02:03 18.43383 -66.11971 1891 ft 142 kts 88°
2026-04-26 02:03 18.43380 -66.10931 1718 ft 142 kts 88°
2026-04-26 02:03 18.43379 -66.09891 1544 ft 142 kts 89°
2026-04-26 02:03 18.43376 -66.08850 1366 ft 141 kts 89°
2026-04-26 02:04 18.43373 -66.07829 1186 ft 141 kts 89°
2026-04-26 02:04 18.43370 -66.06802 1002 ft 140 kts 89°
2026-04-26 02:04 18.43368 -66.05771 815 ft 140 kts 89°
2026-04-26 02:04 18.43366 -66.04746 635 ft 140 kts 89°
2026-04-26 02:05 18.43358 -66.03718 445 ft 142 kts 90°
2026-04-26 02:05 18.43350 -66.02675 279 ft 142 kts 89°
2026-04-26 02:05 18.43359 -66.01630 109 ft 142 kts 89°
2026-04-26 02:05 18.43356 -66.00637 17 ft 111 kts 90°
2026-04-26 02:06 18.43355 -66.00089 16 ft 46 kts 85°
2026-04-26 02:06 18.43411 -65.99910 16 ft 12 kts 50°
2026-04-26 02:06 18.43463 -65.99948 16 ft 12 kts 272°
2026-04-26 02:06 18.43464 -66.00041 16 ft 12 kts 270°
2026-04-26 02:07 18.43464 -66.00137 16 ft 12 kts 270°
2026-04-26 02:07 18.43463 -66.00227 16 ft 12 kts 271°
2026-04-26 02:07 18.43467 -66.00301 16 ft 9 kts 297°
2026-04-26 02:07 18.43530 -66.00336 16 ft 10 kts 340°
2026-04-26 02:08 18.43575 -66.00359 16 ft 2 kts 332°
2026-04-26 02:08 18.43576 -66.00359 16 ft 0 kts 332°